This demonstration page uses our WeatherBlox Daily Observations layout. Learn more.

Left ArrowRight Arrow

Hourly Observations for February 10, 2018

Temp ( °F °C ) Dew Point ( °F °C ) Humidity (%) Winds ( mph kmh ) Pressure ( in mb ) Visibility ( mi km ) Precip ( " mm )
12:06 am 00:06 Cloudy with Light Snow 8 -13.3 3 -16.1 80 80 N 14 22 30.48 1032 3 5 0.00 0.03
12:24 am 00:24 Cloudy with Light Snow 8 -13.3 3 -16.1 80 80 N 14 22 30.48 1032 2 3 0.00 0.03
12:31 am 00:31 Cloudy with Light Snow 8 -13.3 3 -16.1 80 80 N 15 24 30.48 1032 2 2 0.00 0.03
12:54 am 00:54 Cloudy with Light Snow 8 -13.3 4 -15.6 83 83 N 13 20 30.43 1030 2 3 0.00 0.03
1:12 am 01:12 Cloudy with Light Snow 8 -13.3 3 -16.1 80 80 N 14 22 30.45 1031 2 3 0.01 0.25
1:25 am 01:25 Cloudy with Light Snow 8 -13.3 3 -16.1 80 80 N 12 19 30.45 1031 3 5 0.01 0.25
1:43 am 01:43 Cloudy with Light Snow 8 -13.3 3 -16.1 80 80 N 12 19 30.45 1031 2 3 0.01 0.25
1:47 am 01:47 Cloudy with Light Snow 8 -13.3 3 -16.1 80 80 N 9 15 30.45 1031 2 3 0.01 0.25
1:54 am 01:54 Cloudy with Light Snow 8 -13.3 3 -16.1 80 80 N 12 19 30.41 1030 2 3 0.01 0.25
2:04 am 02:04 Cloudy with Light Snow 8 -13.3 4 -15.6 83 83 N 10 17 30.45 1031 4 6 0.01 0.25
2:54 am 02:54 Cloudy with Light Snow 8 -13.3 3 -16.1 80 80 N 13 20 30.40 1030 6 10 0.01 0.25
3:54 am 03:54 Cloudy 8 -13.3 2 -16.7 76 76 N 14 22 30.42 1030 10 16 0.00 0.03
4:54 am 04:54 Mostly Clear 7 -13.9 2 -16.7 80 80 N 10 17 30.40 1030 10 16 0.00 0.00
5:54 am 05:54 Clear 5 -15 0 -17.8 79 79 N 9 15 30.41 1030 10 16 0.00 0.00
6:54 am 06:54 Clear 4 -15.6 -1 -18.3 80 80 N 8 13 30.40 1030 10 16 0.00 0.00
7:54 am 07:54 Sunny 3 -16.1 -2 -18.9 79 79 NNW 7 11 30.40 1029 10 16 0.00 0.00
8:54 am 08:54 Sunny 4 -15.6 -2 -18.9 76 76 N 6 9 30.39 1029 10 16 0.00 0.00
9:54 am 09:54 Sunny 7 -13.9 0 -17.8 73 73 N 13 20 30.39 1029 10 16 0.00 0.00
10:54 am 10:54 Sunny 8 -13.3 1 -17.2 73 73 N 13 20 30.39 1029 10 16 0.00 0.00
11:54 am 11:54 Sunny 10 -12.2 1 -17.2 67 67 NE 7 11 30.37 1029 10 16 0.00 0.00
12:54 pm 12:54 Sunny 10 -12.2 1 -17.2 67 67 NE 8 13 30.34 1028 10 16 0.00 0.00
1:54 pm 13:54 Sunny 11 -11.7 2 -16.7 67 67 N 9 15 30.31 1026 10 16 0.00 0.00
2:54 pm 14:54 Mostly Cloudy 11 -11.7 2 -16.7 67 67 N 10 17 30.29 1026 10 16 0.00 0.00
3:54 pm 15:54 Mostly Cloudy 11 -11.7 2 -16.7 67 67 N 9 15 30.27 1025 10 16 0.00 0.00
4:54 pm 16:54 Cloudy 11 -11.7 2 -16.7 67 67 N 8 13 30.28 1025 10 16 0.00 0.00
5:54 pm 17:54 Cloudy 10 -12.2 2 -16.7 69 69 N 9 15 30.27 1025 9 14 0.00 0.00
6:16 pm 18:16 Cloudy with Light Snow 10 -12.2 4 -15.6 76 76 N 9 15 30.33 1027 3 4 0.00 0.03
6:23 pm 18:23 Cloudy with Light Snow 10 -12.2 4 -15.6 76 76 N 8 13 30.33 1027 3 5 0.00 0.03
6:38 pm 18:38 Cloudy with Light Snow 9 -12.8 4 -15.6 80 80 N 8 13 30.36 1028 3 4 0.00 0.03
6:54 pm 18:54 Cloudy with Light Snow 9 -12.8 5 -15 84 84 N 8 13 30.27 1025 2 3 0.00 0.03
7:21 pm 19:21 Cloudy with Light Snow 9 -12.8 5 -15 84 84 N 7 11 30.33 1027 2 3 0.01 0.25
7:39 pm 19:39 Cloudy with Light Snow 9 -12.8 5 -15 84 84 N 8 13 30.33 1027 3 5 0.02 0.51
7:54 pm 19:54 Cloudy with Haze 9 -12.8 4 -15.6 80 80 N 7 11 30.27 1025 5 8 0.02 0.51
8:31 pm 20:31 Cloudy with Light Snow 9 -12.8 5 -15 84 84 N 7 11 30.33 1027 3 4 0.00 0.03
8:45 pm 20:45 Cloudy with Light Snow 9 -12.8 5 -15 84 84 NNW 7 11 30.36 1028 2 2 0.00 0.03
8:54 pm 20:54 Cloudy with Light Snow 9 -12.8 5 -15 84 84 NNW 7 11 30.27 1025 2 2 0.00 0.03
9:37 pm 21:37 Cloudy with Light Snow 9 -12.8 5 -15 84 84 NW 6 9 30.36 1028 2 3 0.02 0.51
9:54 pm 21:54 Cloudy with Light Snow 9 -12.8 5 -15 84 84 NNW 7 11 30.28 1026 2 3 0.02 0.51
10:06 pm 22:06 Cloudy with Light Snow 9 -12.8 5 -15 84 84 NW 5 7 30.36 1028 2 3 0.00 0.03
10:31 pm 22:31 Cloudy with Light Snow 9 -12.8 5 -15 84 84 NW 3 6 30.36 1028 2 2 0.01 0.25
10:54 pm 22:54 Cloudy with Light Snow 9 -12.8 6 -14.4 88 88 NW 7 11 30.27 1025 1 2 0.02 0.51
11:42 pm 23:42 Cloudy with Light Snow 9 -12.8 6 -14.4 88 88 NNW 5 7 30.33 1027 2 3 0.01 0.25
11:54 pm 23:54 Cloudy with Light Snow 9 -12.8 5 -15 84 84 NNW 7 11 30.24 1024 4 6 0.01 0.25

Powered by AerisWeather